TimeCDT,TemperatureF,Dew PointF,Humidity,Sea Level PressureIn,VisibilityMPH,Wind Direction,Wind SpeedMPH,Gust SpeedMPH,PrecipitationIn,Events,Conditions,WindDirDegrees,DateUTC
12:53 AM,41.0,37.0,86,29.99,10.0,SSE,3.5,-,N/A,,Overcast,150,2013-10-22 05:53:00
1:53 AM,41.0,36.0,82,29.97,10.0,Calm,Calm,-,N/A,,Mostly Cloudy,0,2013-10-22 06:53:00
2:53 AM,39.9,34.0,79,29.95,10.0,South,4.6,-,N/A,,Clear,190,2013-10-22 07:53:00
3:53 AM,44.1,37.0,76,29.92,10.0,SSW,8.1,-,N/A,,Clear,210,2013-10-22 08:53:00
4:53 AM,45.0,37.0,74,29.91,10.0,SW,8.1,-,N/A,,Mostly Cloudy,220,2013-10-22 09:53:00
5:53 AM,46.0,41.0,83,29.90,10.0,SSW,8.1,-,0.00,,Overcast,210,2013-10-22 10:53:00
6:53 AM,42.1,37.9,85,29.91,10.0,SSW,5.8,-,N/A,,Clear,210,2013-10-22 11:53:00
7:53 AM,42.1,37.9,85,29.91,10.0,WSW,4.6,-,N/A,,Clear,240,2013-10-22 12:53:00
8:53 AM,48.9,42.1,77,29.92,10.0,West,6.9,-,N/A,,Clear,260,2013-10-22 13:53:00
9:49 AM,53.6,44.6,72,29.91,10.0,WNW,9.2,-,N/A,,Mostly Cloudy,300,2013-10-22 14:49:00
9:53 AM,53.1,44.1,71,29.92,10.0,WNW,12.7,-,N/A,,Mostly Cloudy,300,2013-10-22 14:53:00
10:53 AM,55.9,44.1,64,29.93,10.0,NW,13.8,23.0,N/A,,Mostly Cloudy,310,2013-10-22 15:53:00
11:36 AM,55.4,41.0,58,29.93,10.0,NW,20.7,28.8,N/A,,Mostly Cloudy,310,2013-10-22 16:36:00
11:53 AM,55.9,39.9,55,29.94,10.0,NNW,24.2,31.1,N/A,,Mostly Cloudy,330,2013-10-22 16:53:00
12:53 PM,55.0,37.9,53,29.96,10.0,NW,20.7,28.8,N/A,,Overcast,320,2013-10-22 17:53:00
1:53 PM,55.9,37.0,49,29.95,10.0,NNW,18.4,26.5,N/A,,Mostly Cloudy,330,2013-10-22 18:53:00
2:53 PM,55.9,37.0,49,29.97,10.0,NNW,17.3,24.2,N/A,,Mostly Cloudy,330,2013-10-22 19:53:00
3:53 PM,54.0,36.0,51,29.99,10.0,NNW,20.7,33.4,N/A,,Overcast,340,2013-10-22 20:53:00
4:53 PM,53.1,33.1,47,30.01,10.0,NW,24.2,32.2,N/A,,Scattered Clouds,320,2013-10-22 21:53:00
5:53 PM,48.9,35.1,59,30.04,10.0,NNW,11.5,-,N/A,,Partly Cloudy,340,2013-10-22 22:53:00
6:53 PM,46.9,36.0,66,30.07,10.0,North,9.2,-,N/A,,Overcast,360,2013-10-22 23:53:00
7:53 PM,45.0,34.0,65,30.09,10.0,North,8.1,17.3,N/A,,Overcast,360,2013-10-23 00:53:00
8:53 PM,39.0,32.0,76,30.11,10.0,North,5.8,-,N/A,,Partly Cloudy,360,2013-10-23 01:53:00
9:53 PM,37.0,30.9,79,30.13,10.0,North,5.8,-,N/A,,Scattered Clouds,350,2013-10-23 02:53:00
10:11 PM,37.4,32.0,81,30.12,10.0,North,4.6,-,N/A,,Overcast,350,2013-10-23 03:11:00
10:31 PM,39.2,33.8,81,30.12,10.0,North,3.5,-,N/A,,Overcast,360,2013-10-23 03:31:00
10:53 PM,37.9,32.0,79,30.13,10.0,North,3.5,-,N/A,,Mostly Cloudy,360,2013-10-23 03:53:00
11:53 PM,36.0,32.0,86,30.12,10.0,Calm,Calm,-,N/A,,Clear,0,2013-10-23 04:53:00